User: anonymous   Login
Location: Fort Wayne
(41.1310°N, 85.1290°W)
Time: 08:15:56
(UTC-04:00)
Language:

COSMOS 2406 - Orbit

View from above orbital plane
View from above orbital plane
View from above satellite
View from above satellite

Ground track
Ground track

The orbit data is extracted from the following two-line orbital elements,

1 28352U 04021A   17116.80429549 -.00000183 +00000-0 -74792-4 0  9991
2 28352 071.0061 231.9874 0015322 191.5069 168.5704 14.11632921663595
Epoch (UTC): 26 April 2017 19:18:11
Eccentricity: 0.0015322
inclination: 71.0061°
perigee height: 843 km
apogee height: 865 km
right ascension of ascending node: 231.9874°
argument of perigee: 191.5069°
revolutions per day: 14.11632921
mean anomaly at epoch: 168.5704°
orbit number at epoch: 66359

The dashed part of the orbit path shows where the satellite is in the earth's shadow,  

DLR